Weather History for Fort Morgan, CO

Change the Weather History Date:

Friday, April 19, 2013

  Actual Average (KAKO) Record (KAKO)
Temperature  
Mean Temperature 36 °F 48 °F  
Max Temperature 55 °F 62 °F 86 °F (1940)
Min Temperature 18 °F 34 °F 16 °F (1966)
Degree Days  
Heating Degree Days 28    
Month to date heating degree days  
Cooling Degree Days 0    
Month to date cooling degree days  
Moisture  
Dew Point 23 °F    
Average Humidity 61    
Maximum Humidity 82    
Minimum Humidity 27    
Precipitation  
Precipitation 0.00 in 0.06 in 1.14 in (1977)
Month to date precipitation 0.90  
Year to date precipitation 2.51  
Sea Level Pressure  
Sea Level Pressure 30.02 in    
Wind  
Wind Speed 9 mph (WNW)    
Max Wind Speed 17 mph    
Max Gust Speed 23 mph    
Visibility 10 miles    
Events      
T = Trace of Precipitation, MM = Missing Value Source: NWS Daily Summary

Daily Weather History Graph

Daily Weather History Graph

Search for Another Location

Airport:

Trip Planner

Search our weather history database for the weather conditions in past years. The results will help you decide how hot, cold, wet, or windy it might be!

Date:

Astronomy

Apr. 19, 2013 Rise Set
Actual Time 6:10 AM MDT 7:38 PM MDT
Civil Twilight 5:42 AM MDT 8:07 PM MDT
Nautical Twilight 5:07 AM MDT 8:41 PM MDT
Astronomical Twilight 4:31 AM MDT 9:18 PM MDT
Moon 1:24 PM MDT (4/19) 2:28 AM MDT (4/19)
Length of Visible Light 14h 25m
Length of Day
13h 28m
Waxing Gibbous, 62% of the Moon is Illuminated
Apr 19
Waxing Gibbous
Apr 25
Full
May 2
Last Quarter
May 9
New
May 17
First Quarter

Hourly Weather History & Observations

Time (MDT) Temp. Windchill Dew Point Humidity Pressure Visibility Wind Dir Wind Speed Gust Speed Precip Events Conditions
12:15 AM 27.1 °F 14.5 °F 14.9 °F 60% 30.11 in 10.0 mi WNW 17.3 mph - N/A   Overcast
12:35 AM 27.1 °F 17.5 °F 15.6 °F 62% 30.10 in 10.0 mi West 10.4 mph 23.0 mph N/A   Overcast
12:55 AM 25.0 °F 15.5 °F 17.1 °F 72% 30.10 in 10.0 mi West 9.2 mph - N/A   Overcast
1:15 AM 23.9 °F 13.5 °F 16.5 °F 73% 30.09 in 10.0 mi West 10.4 mph - N/A   Overcast
1:35 AM 23.9 °F 15.0 °F 17.6 °F 77% 30.09 in 10.0 mi West 8.1 mph - N/A   Overcast
1:55 AM 23.9 °F 15.0 °F 18.0 °F 78% 30.09 in 10.0 mi West 8.1 mph - N/A   Overcast
2:15 AM 23.9 °F 15.8 °F 18.5 °F 80% 30.09 in 10.0 mi West 6.9 mph - N/A   Overcast
2:35 AM 24.4 °F 15.6 °F 19.0 °F 80% 30.08 in 10.0 mi West 8.1 mph - N/A   Overcast
2:55 AM 22.5 °F 14.1 °F 17.6 °F 82% 30.07 in 10.0 mi WNW 6.9 mph - N/A   Scattered Clouds
3:15 AM 21.9 °F 15.7 °F 16.7 °F 80% 30.07 in 10.0 mi WNW 4.6 mph - N/A   Clear
3:35 AM 21.6 °F 14.0 °F 15.4 °F 77% 30.07 in 10.0 mi West 5.8 mph - N/A   Clear
3:55 AM 21.6 °F 14.0 °F 14.9 °F 76% 30.07 in 10.0 mi West 5.8 mph - N/A   Scattered Clouds
4:15 AM 21.2 °F 13.6 °F 14.7 °F 76% 30.07 in 10.0 mi West 5.8 mph - N/A   Clear
4:35 AM 19.6 °F 11.7 °F 13.6 °F 78% 30.07 in 10.0 mi West 5.8 mph - N/A   Clear
4:55 AM 18.5 °F 9.3 °F 13.5 °F 81% 30.07 in 10.0 mi West 6.9 mph - N/A   Clear
5:15 AM 18.3 °F 9.1 °F 13.6 °F 82% 30.07 in 10.0 mi West 6.9 mph - N/A   Clear
5:35 AM 18.7 °F 8.6 °F 14.0 °F 82% 30.07 in 10.0 mi West 8.1 mph - N/A   Clear
5:55 AM 21.6 °F 9.3 °F 15.4 °F 77% 30.06 in 10.0 mi WNW 12.7 mph - N/A   Scattered Clouds
6:15 AM 22.6 °F 10.1 °F 15.4 °F 74% 30.07 in 10.0 mi West 13.8 mph - N/A   Clear
6:35 AM 21.4 °F 9.7 °F 14.9 °F 76% 30.07 in 10.0 mi West 11.5 mph - N/A   Clear
6:55 AM 21.6 °F 11.3 °F 15.3 °F 77% 30.07 in 10.0 mi West 9.2 mph - N/A   Clear
7:15 AM 22.3 °F 12.2 °F 15.8 °F 76% 30.07 in 10.0 mi West 9.2 mph - N/A   Clear
7:35 AM 23.5 °F 15.4 °F 17.6 °F 78% 30.07 in 10.0 mi West 6.9 mph - N/A   Clear
7:55 AM 25.7 °F 19.0 °F 18.9 °F 75% 30.07 in 10.0 mi West 5.8 mph - N/A   Clear
8:15 AM 28.0 °F 21.7 °F 20.5 °F 73% 30.07 in 10.0 mi WNW 5.8 mph - N/A   Clear
8:35 AM 29.7 °F 23.7 °F 21.9 °F 73% 30.07 in 10.0 mi West 5.8 mph - N/A   Clear
8:55 AM 32.0 °F 24.8 °F 23.0 °F 69% 30.07 in 10.0 mi West 8.1 mph - N/A   Clear
9:35 AM 34.9 °F 27.7 °F 24.8 °F 67% 30.06 in 10.0 mi West 9.2 mph - N/A   Clear
9:55 AM 36.5 °F 29.7 °F 25.7 °F 65% 30.06 in 10.0 mi West 9.2 mph - N/A   Clear
10:15 AM 36.9 °F 29.6 °F 25.7 °F 64% 30.06 in 10.0 mi West 10.4 mph - N/A   Clear
10:35 AM 39.2 °F 33.0 °F 26.1 °F 59% 30.06 in 10.0 mi West 9.2 mph - N/A   Clear
10:55 AM 40.8 °F 35.6 °F 27.5 °F 59% 30.06 in 10.0 mi West 8.1 mph - N/A   Clear
11:15 AM 41.9 °F 38.2 °F 29.7 °F 62% 30.06 in 10.0 mi West 5.8 mph - N/A   Clear
11:35 AM 44.1 °F 39.0 °F 27.1 °F 51% 30.05 in 10.0 mi West 9.2 mph - N/A   Scattered Clouds
11:55 AM 45.9 °F 40.0 °F 26.8 °F 47% 30.04 in 10.0 mi West 12.7 mph - N/A   Scattered Clouds
12:15 PM 47.7 °F - 26.4 °F 44% 30.04 in 10.0 mi West 11.5 mph 17.3 mph N/A   Clear
12:35 PM 48.6 °F - 25.3 °F 40% 30.03 in 10.0 mi West 10.4 mph - N/A   Clear
12:55 PM 50.0 °F - 23.9 °F 36% 30.02 in 10.0 mi West 9.2 mph 16.1 mph N/A   Clear
1:15 PM 51.6 °F - 24.1 °F 34% 30.02 in 10.0 mi West 12.7 mph - N/A   Clear
1:35 PM 50.9 °F - 24.3 °F 35% 30.01 in 10.0 mi WNW 13.8 mph 19.6 mph N/A   Scattered Clouds
1:55 PM 52.7 °F - 25.5 °F 35% 30.01 in 10.0 mi NW 11.5 mph - N/A   Mostly Cloudy
2:15 PM 52.2 °F - 25.0 °F 35% 30.01 in 10.0 mi NW 11.5 mph 16.1 mph N/A   Mostly Cloudy
2:35 PM 51.4 °F - 23.4 °F 33% 30.00 in 10.0 mi NW 9.2 mph - N/A   Scattered Clouds
2:55 PM 54.1 °F - 25.9 °F 34% 29.99 in 10.0 mi WNW 9.2 mph - N/A   Clear
3:15 PM 54.5 °F - 22.6 °F 29% 29.98 in 10.0 mi West 5.8 mph - N/A   Clear
3:35 PM 55.0 °F - 23.0 °F 29% 29.98 in 10.0 mi WNW 9.2 mph - N/A   Clear
3:55 PM 55.0 °F - 22.3 °F 28% 29.97 in 10.0 mi NNW 3.5 mph - N/A   Clear
4:15 PM 52.9 °F - 19.8 °F 27% 29.96 in 10.0 mi Calm Calm - N/A   Scattered Clouds
4:35 PM 52.7 °F - 21.6 °F 30% 29.96 in 10.0 mi Calm Calm - N/A   Mostly Cloudy
4:55 PM 53.6 °F - 21.6 °F 29% 29.96 in 10.0 mi Calm Calm - N/A   Mostly Cloudy
5:15 PM 52.7 °F - 25.0 °F 34% 29.96 in 10.0 mi North 6.9 mph - N/A   Mostly Cloudy
5:35 PM 52.2 °F - 27.0 °F 38% 29.96 in 10.0 mi NE 5.8 mph - N/A   Mostly Cloudy
5:55 PM 52.0 °F - 28.0 °F 40% 29.96 in 10.0 mi NE 8.1 mph - N/A   Mostly Cloudy
6:15 PM 51.1 °F - 28.0 °F 41% 29.96 in 10.0 mi NE 10.4 mph - N/A   Mostly Cloudy
6:35 PM 48.4 °F - 29.8 °F 49% 29.96 in 10.0 mi NE 9.2 mph - N/A   Scattered Clouds
6:55 PM 47.3 °F - 29.3 °F 50% 29.96 in 10.0 mi NNE 11.5 mph - N/A   Scattered Clouds
7:15 PM 45.0 °F 40.1 °F 31.5 °F 59% 29.96 in 10.0 mi NNE 9.2 mph - N/A   Clear
7:35 PM 42.1 °F 37.1 °F 31.1 °F 65% 29.96 in 10.0 mi NE 8.1 mph - N/A   Scattered Clouds
7:55 PM 40.8 °F 35.6 °F 31.1 °F 68% 29.96 in 10.0 mi ENE 8.1 mph - N/A   Scattered Clouds
8:15 PM 39.9 °F 34.5 °F 31.3 °F 71% 29.96 in 10.0 mi East 8.1 mph - N/A   Scattered Clouds
8:35 PM 39.4 °F 33.8 °F 31.1 °F 72% 29.96 in 10.0 mi East 8.1 mph - N/A   Mostly Cloudy
8:55 PM 41.0 °F 34.7 °F 31.8 °F 70% 29.97 in 10.0 mi ESE 10.4 mph - N/A   Mostly Cloudy
9:15 PM 41.4 °F 36.2 °F 31.3 °F 67% 29.98 in 10.0 mi ESE 8.1 mph - N/A   Mostly Cloudy
9:35 PM 41.7 °F 36.1 °F 31.5 °F 67% 29.98 in 10.0 mi ESE 9.2 mph - N/A   Overcast
9:55 PM 41.5 °F 36.4 °F 31.5 °F 67% 29.98 in 10.0 mi ESE 8.1 mph - N/A   Mostly Cloudy
10:15 PM 41.2 °F 35.5 °F 30.9 °F 67% 29.97 in 10.0 mi SE 9.2 mph - N/A   Scattered Clouds
10:35 PM 40.5 °F 35.1 °F 30.9 °F 69% 29.97 in 10.0 mi SE 8.1 mph - N/A   Scattered Clouds
10:55 PM 38.5 °F 34.1 °F 30.7 °F 74% 29.97 in 10.0 mi SSE 5.8 mph - N/A   Scattered Clouds
11:15 PM 37.2 °F 30.0 °F 30.6 °F 77% 29.97 in 10.0 mi SSE 10.4 mph - N/A   Clear
11:35 PM 36.5 °F 29.7 °F 30.2 °F 78% 29.97 in 10.0 mi SSE 9.2 mph - N/A   Clear
11:55 PM 35.6 °F 29.9 °F 29.8 °F 80% 29.97 in 10.0 mi SSE 6.9 mph - N/A   Clear